Location: Newark
(41.3147°N, 3.1384°W)
Time: 23:37:48
(UTC+00:00)

OTV 5 (USA 277) - Visible Passes

Search period start: 17 October 2019 00:00
Search period end: 27 October 2019 00:00
Orbit: 310 x 324 km, 54.5° (Epoch: 08 October)

Date Brightness Start Highest point End Pass type
(mag) Time Alt. Az. Time Alt. Az. Time Alt. Az.
17 Oct ? 05:53:30 10° NW 05:56:11 49° NE 05:58:51 10° ESE visible
18 Oct ? 04:36:01 16° NNE 04:36:12 16° NNE 04:38:00 10° ENE visible
19 Oct ? 04:50:31 29° NNE 04:50:58 30° NE 04:53:27 10° E visible
20 Oct ? 05:05:08 58° NW 05:05:35 85° NNE 05:08:19 10° SE visible
21 Oct ? 05:19:54 29° SW 05:20:04 29° SW 05:22:30 10° SSE visible
22 Oct ? 05:34:48 11° SW 05:34:48 11° SW 05:35:11 10° SW visible
